Location: Kumla
(59.1265°N, 15.1401°E)
Time: 22:12:52
(UTC+01:00)

Vanguard 1 - Pass Details

Date: 04 December 2023
Orbit: 653 x 3825 km, 34.3° (Epoch: 04 March)

Event Time Altitude Azimuth Distance (km) Brightness Sun altitude
Rises 00:15:27 0° 271° (W) 7,703 14.6 -52.7°
Reaches altitude 10° 00:23:01 10° 257° (WSW) 6,889 14.1 -52.6°
Enters shadow 00:23:31 11° 256° (WSW) 6,843 14.1 -52.5°
